Location: Brno
(49.2000°N, 16.6330°E)
Time: 06:04:42
(UTC+02:00)

CARTOSAT-1 - Visible Passes

Search period start: 30 July 2015 00:00
Search period end: 09 August 2015 00:00
Orbit: 616 x 621 km, 97.9° (Epoch: 29 July)

Date Brightness Start Highest point End Pass type
(mag) Time Alt. Az. Time Alt. Az. Time Alt. Az.
30 Jul 4.6 21:45:36 13° SE 21:48:52 32° ENE 21:52:45 10° N visible
30 Jul 5.0 23:22:44 19° SW 23:25:00 30° W 23:28:48 10° NNW visible
31 Jul 4.1 22:02:39 18° SE 22:05:36 46° ENE 22:09:45 10° N visible
31 Jul 5.5 23:39:48 15° SW 23:41:58 21° W 23:45:14 10° NW visible
01 Aug 3.6 22:19:43 23° SSE 22:22:21 67° ENE 22:26:39 10° N visible
01 Aug 5.9 23:56:51 11° WSW 23:58:58 15° W 00:01:22 10° NW visible
02 Aug 3.5 22:36:47 27° S 22:39:09 84° WSW 22:43:30 10° NNW visible
03 Aug 5.3 21:17:16 10° ESE 21:20:15 19° ENE 21:23:18 10° NNE visible
03 Aug 4.0 22:53:50 28° S 22:55:59 57° W 23:00:16 10° NNW visible
04 Aug 4.9 21:33:46 12° ESE 21:36:53 26° ENE 21:40:30 10° N visible
04 Aug 4.6 23:10:54 25° SSW 23:12:51 39° W 23:16:55 10° NNW visible
05 Aug 4.4 21:50:50 17° SE 21:53:36 35° ENE 21:57:34 10° N visible
05 Aug 5.2 23:27:58 21° SW 23:29:47 27° W 23:33:28 10° NW visible
06 Aug 3.9 22:07:53 23° SE 22:10:19 51° ENE 22:14:32 10° N visible
06 Aug 5.6 23:45:02 16° WSW 23:46:45 19° W 23:49:49 10° NW visible
07 Aug 3.5 22:24:57 29° SSE 22:27:05 74° ENE 22:31:24 10° N visible
08 Aug 6.0 00:02:06 11° WSW 00:03:47 13° W 00:05:48 10° WNW visible
08 Aug 5.6 21:05:55 10° E 21:08:17 15° ENE 21:10:48 10° NNE visible
08 Aug 3.6 22:42:01 33° S 22:43:53 76° WSW 22:48:13 10° NNW visible
